This demonstration page uses our WeatherBlox Daily Observations layout. Learn more.

Left ArrowRight Arrow

Hourly Observations for May 26, 2020

Temp ( °F °C ) Dew Point ( °F °C ) Humidity (%) Winds ( mph kmh ) Pressure ( in mb ) Visibility ( mi km ) Precip ( " mm )
12:53 am 00:53 Clear 64 17.8 50 10 60 60 NNE 9 15 29.91 1013 10 16 0.00 0.00
1:53 am 01:53 Clear 62 16.7 50 10 65 65 NNE 8 13 29.92 1013 10 16 0.00 0.00
2:53 am 02:53 Clear 59 15 49 9.4 69 69 N 8 13 29.92 1013 10 16 0.00 0.00
3:53 am 03:53 Clear 57 13.9 49 9.4 74 74 N 8 13 29.93 1014 10 16 0.00 0.00
4:53 am 04:53 Clear 55 12.8 48 8.9 77 77 N 6 9 29.94 1014 10 16 0.00 0.00
5:53 am 05:53 Clear 54 12.2 48 8.9 80 80 N 7 11 29.95 1014 10 16 0.00 0.00
6:49 am 06:49 Hazy 54 12 46 8 77 77 NNW 7 11 30.03 1017 1 1 0.00 0.00
6:53 am 06:53 Hazy 53 11.7 47 8.3 80 80 NNW 7 11 29.97 1015 0 0 0.00 0.00
7:30 am 07:30 Hazy 54 12.2 48 8.9 80 80 N 6 9 30.04 1017 1 2 0.00 0.00
7:39 am 07:39 Sunny 55 12.8 48 8.9 77 77 N 6 9 30.03 1017 10 16 0.00 0.00
7:53 am 07:53 Sunny 56 13.3 48 8.9 75 75 N 8 13 29.97 1015 10 16 0.00 0.00
8:53 am 08:53 Sunny 62 16.7 49 9.4 62 62 NNE 7 11 29.97 1015 10 16 0.00 0.00
9:53 am 09:53 Sunny 67 19.4 50 10 55 55 S 3 6 29.98 1015 10 16 0.00 0.00
10:53 am 10:53 Sunny 73 22.8 49 9.4 43 43 Calm 29.96 1015 10 16 0.00 0.00
11:53 am 11:53 Sunny 76 24.4 41 5 29 29 VRB 3 6 29.95 1014 10 16 0.00 0.00
12:53 pm 12:53 Sunny 77 25 40 4.4 26 26 VRB 3 6 29.93 1014 10 16 0.00 0.00
1:53 pm 13:53 Sunny 80 26.7 41 5 25 25 Calm 29.91 1013 10 16 0.00 0.00
2:53 pm 14:53 Sunny 82 27.8 42 5.6 24 24 VRB 6 9 29.88 1012 10 16 0.00 0.00
3:53 pm 15:53 Sunny 82 27.8 41 5 23 23 VRB 5 7 29.85 1011 10 16 0.00 0.00
4:53 pm 16:53 Sunny 85 29.4 39 3.9 20 20 undefined N/A 29.83 1010 10 16 0.00 0.00
5:53 pm 17:53 Sunny 85 29.4 38 3.3 19 19 VRB 5 7 29.81 1009 10 16 0.00 0.00
6:53 pm 18:53 Sunny 85 29.4 37 2.8 18 18 WSW 7 11 29.80 1009 10 16 0.00 0.00
7:53 pm 19:53 Sunny 84 28.9 35 1.7 17 17 Calm 29.80 1009 10 16 0.00 0.00
8:53 pm 20:53 Clear 80 26.7 36 2.2 20 20 ESE 3 6 29.80 1009 10 16 0.00 0.00
9:53 pm 21:53 Clear 74 23.3 37 2.8 26 26 SE 8 13 29.80 1009 10 16 0.00 0.00
10:53 pm 22:53 Clear 74 23.3 35 1.7 24 24 SSE 9 15 29.80 1009 10 16 0.00 0.00
11:53 pm 23:53 Clear 71 21.7 35 1.7 27 27 SSE 9 15 29.80 1009 10 16 0.00 0.00

Powered by AerisWeather